Find SAT-57936

NORAD ID: 57936 Owner: SpaceX Operational

リアルタイム位置

3D地球を読み込み中...

SAT-57936について

説明を読み込み中...

次回通過

Passes for default location (London). Set your location on the main map for personalized predictions.

高度履歴

Loading altitude history...

軌道要素

1 25544U 98067A 24001.50000000 .00002182 00000-0 42575-4 0 9990
2 25544 51.6461 339.7939 0001397 83.2776 276.8615 15.48919103123456
Epoch: Jan 1, 2024 • Age: N/A

現在のステータス

Position data unavailable

Most Searched